RA67375 ULWU-ULKK

Flight info

Callsign RA67375
Flight time N/A
Altitude 4000
Route N0130A040 UTASA
Aircraft C172/M-A/L

Departure

Time 2026-05-06 14:26
Airport Velikiy Ustyug Airport (ULWU)

Arrival

Time N/A
Airport Kotlas Airport (ULKK)
Time Latitude Longitude Altitude Speed Heading
2026-05-06 14:04 60.78357 46.25987 292 ft 0 kts 242°
2026-05-06 14:23 60.78356 46.25984 290 ft 2 kts 251°
2026-05-06 14:24 60.78391 46.25914 295 ft 10 kts 308°
2026-05-06 14:24 60.78442 46.25749 296 ft 16 kts 302°
2026-05-06 14:24 60.78504 46.25624 300 ft 10 kts 20°
2026-05-06 14:24 60.78512 46.25633 298 ft 0 kts 30°
2026-05-06 14:25 60.78514 46.25634 301 ft 5 kts 27°
2026-05-06 14:25 60.78689 46.25851 295 ft 53 kts 31°
2026-05-06 14:25 60.79103 46.26348 352 ft 80 kts 26°
2026-05-06 14:26 60.79607 46.26900 470 ft 87 kts 17°
2026-05-06 14:26 60.80138 46.27506 642 ft 87 kts 22°
2026-05-06 14:26 60.80655 46.28112 824 ft 84 kts 21°
2026-05-06 14:26 60.81156 46.28690 979 ft 84 kts 20°
2026-05-06 14:27 60.81662 46.29287 1124 ft 85 kts 21°
2026-05-06 14:27 60.82195 46.29908 1239 ft 90 kts 22°
2026-05-06 14:27 60.82733 46.30545 1416 ft 86 kts 22°
2026-05-06 14:27 60.83235 46.31137 1574 ft 85 kts 18°
2026-05-06 14:28 60.83747 46.31740 1712 ft 84 kts 17°
2026-05-06 14:28 60.84253 46.32334 1843 ft 84 kts 17°
2026-05-06 14:28 60.84773 46.32942 1981 ft 88 kts 19°
2026-05-06 14:28 60.85303 46.33569 2151 ft 88 kts 20°
2026-05-06 14:29 60.85829 46.34187 2325 ft 88 kts 20°
2026-05-06 14:29 60.86354 46.34810 2525 ft 86 kts 19°
2026-05-06 14:29 60.86866 46.35411 2722 ft 85 kts 19°
2026-05-06 14:29 60.87382 46.36020 2897 ft 86 kts 19°
2026-05-06 14:30 60.87902 46.36633 3052 ft 86 kts 19°
2026-05-06 14:30 60.88425 46.37249 3190 ft 87 kts 20°
2026-05-06 14:30 60.88947 46.37863 3350 ft 88 kts 19°
2026-05-06 14:30 60.89477 46.38492 3491 ft 88 kts 19°
2026-05-06 14:31 60.90007 46.39119 3665 ft 89 kts 19°
2026-05-06 14:31 60.90551 46.39760 3785 ft 91 kts 19°
2026-05-06 14:31 60.91105 46.40415 3916 ft 92 kts 18°
2026-05-06 14:31 60.91666 46.41080 4039 ft 93 kts 18°
2026-05-06 14:32 60.92225 46.41743 4160 ft 92 kts 18°
2026-05-06 14:32 60.92776 46.42396 4283 ft 92 kts 18°
2026-05-06 14:32 60.93334 46.43056 4392 ft 93 kts 18°
2026-05-06 14:32 60.93895 46.43722 4488 ft 93 kts 18°
2026-05-06 14:33 60.94461 46.44390 4581 ft 94 kts 17°
2026-05-06 14:33 60.95046 46.44981 4675 ft 93 kts 11°
2026-05-06 14:33 60.95630 46.45509 4787 ft 92 kts 11°
2026-05-06 14:33 60.96220 46.46045 4887 ft 93 kts 10°
2026-05-06 14:34 60.96814 46.46584 5001 ft 93 kts 10°
2026-05-06 14:34 60.97404 46.47118 5129 ft 94 kts
2026-05-06 14:34 60.98012 46.47669 5239 ft 96 kts
2026-05-06 14:34 60.98627 46.48227 5329 ft 97 kts
2026-05-06 14:35 60.99247 46.48791 5425 ft 98 kts
2026-05-06 14:35 60.99863 46.49353 5538 ft 97 kts
2026-05-06 14:35 61.00484 46.49918 5639 ft 97 kts
2026-05-06 14:35 61.01105 46.50483 5740 ft 98 kts
2026-05-06 14:36 61.01724 46.51047 5844 ft 97 kts
2026-05-06 14:36 61.02345 46.51610 5935 ft 98 kts
2026-05-06 14:36 61.02979 46.52185 6006 ft 103 kts
2026-05-06 14:36 61.03654 46.52797 6024 ft 111 kts
2026-05-06 14:37 61.04381 46.53463 6018 ft 117 kts 10°
2026-05-06 14:37 61.05137 46.54160 6015 ft 120 kts 11°
2026-05-06 14:37 61.05901 46.54865 6020 ft 120 kts 11°
2026-05-06 14:37 61.06664 46.55565 6017 ft 120 kts 11°
2026-05-06 14:38 61.07426 46.56262 6023 ft 120 kts 11°
2026-05-06 14:38 61.08216 46.56982 5875 ft 127 kts 11°
2026-05-06 14:38 61.09034 46.57738 5728 ft 130 kts 12°
2026-05-06 14:38 61.09865 46.58503 5578 ft 131 kts 12°
2026-05-06 14:39 61.10703 46.59274 5428 ft 132 kts 13°
2026-05-06 14:39 61.11541 46.60043 5277 ft 132 kts 13°
2026-05-06 14:39 61.12380 46.60813 5126 ft 132 kts 14°
2026-05-06 14:39 61.13216 46.61580 4973 ft 131 kts 14°
2026-05-06 14:40 61.14052 46.62347 4821 ft 131 kts 14°
2026-05-06 14:40 61.14886 46.63114 4671 ft 131 kts 14°
2026-05-06 14:40 61.15717 46.63877 4514 ft 130 kts 15°
2026-05-06 14:40 61.16543 46.64636 4363 ft 131 kts 15°
2026-05-06 14:41 61.17372 46.65399 4199 ft 130 kts 15°
2026-05-06 14:41 61.18194 46.66155 4044 ft 129 kts 15°
2026-05-06 14:41 61.19014 46.66910 3891 ft 129 kts 14°
2026-05-06 14:41 61.19836 46.67667 3732 ft 128 kts 14°
2026-05-06 14:42 61.20649 46.68414 3579 ft 127 kts 15°
2026-05-06 14:42 61.21444 46.69149 3425 ft 127 kts 15°
2026-05-06 14:42 61.22247 46.69889 3272 ft 125 kts 16°
2026-05-06 14:42 61.22989 46.70615 3108 ft 112 kts 17°
2026-05-06 14:43 61.23662 46.71299 3004 ft 101 kts 17°
2026-05-06 14:43 61.24264 46.71966 2998 ft 99 kts 32°
2026-05-06 14:43 61.24595 46.73313 2997 ft 109 kts 68°
2026-05-06 14:43 61.24828 46.74790 3001 ft 106 kts 63°
2026-05-06 14:44 61.25073 46.76269 2956 ft 113 kts 65°
2026-05-06 14:44 61.24937 46.77900 2885 ft 123 kts 135°
2026-05-06 14:44 61.24246 46.78892 2827 ft 121 kts 157°
2026-05-06 14:45 61.22726 46.80506 2691 ft 124 kts 160°
2026-05-06 14:45 61.21948 46.81312 2622 ft 125 kts 161°
2026-05-06 14:45 61.21175 46.82110 2558 ft 126 kts 160°
2026-05-06 14:45 61.20386 46.82919 2482 ft 125 kts 161°
2026-05-06 14:46 61.19613 46.83726 2399 ft 123 kts 160°
2026-05-06 14:46 61.18848 46.84526 2322 ft 122 kts 160°
2026-05-06 14:46 61.18089 46.85297 2242 ft 122 kts 161°
2026-05-06 14:46 61.17336 46.86063 2158 ft 119 kts 160°
2026-05-06 14:47 61.16591 46.86818 2082 ft 120 kts 160°
2026-05-06 14:47 61.15844 46.87575 1999 ft 119 kts 160°
2026-05-06 14:47 61.15101 46.88332 1914 ft 119 kts 160°
2026-05-06 14:47 61.14363 46.89092 1836 ft 119 kts 161°
2026-05-06 14:48 61.13639 46.89848 1808 ft 113 kts 160°
2026-05-06 14:48 61.12950 46.90581 1801 ft 110 kts 160°
2026-05-06 14:48 61.12282 46.91299 1798 ft 106 kts 160°
2026-05-06 14:48 61.11634 46.91996 1799 ft 104 kts 160°
2026-05-06 14:49 61.11000 46.92673 1797 ft 101 kts 160°
2026-05-06 14:49 61.10386 46.93324 1797 ft 101 kts 160°
2026-05-06 14:49 61.09751 46.93972 1802 ft 102 kts 160°
2026-05-06 14:49 61.09115 46.94051 1811 ft 89 kts 226°
2026-05-06 14:50 61.08785 46.93040 1813 ft 87 kts 247°
2026-05-06 14:50 61.08708 46.91930 1816 ft 80 kts 305°
2026-05-06 14:50 61.09114 46.91137 1816 ft 79 kts 313°
2026-05-06 14:50 61.09463 46.90288 1813 ft 79 kts 301°
2026-05-06 14:51 61.09697 46.89234 1805 ft 81 kts 294°
2026-05-06 14:51 61.09922 46.88169 1811 ft 81 kts 294°
2026-05-06 14:51 61.10077 46.87466 1811 ft 81 kts 293°
2026-05-06 14:51 61.10323 46.85996 1813 ft 81 kts 289°
2026-05-06 14:52 61.10489 46.85307 1817 ft 81 kts 302°
2026-05-06 14:52 61.10938 46.84588 1807 ft 84 kts 323°
2026-05-06 14:52 61.11606 46.83778 1818 ft 84 kts 324°
2026-05-06 14:52 61.11952 46.83389 1817 ft 86 kts 325°
2026-05-06 14:53 61.12489 46.82810 1819 ft 89 kts 326°
2026-05-06 14:53 61.13039 46.82236 1821 ft 87 kts 327°
2026-05-06 14:53 61.13574 46.81685 1816 ft 84 kts 326°
2026-05-06 14:53 61.14079 46.81165 1805 ft 80 kts 326°
2026-05-06 14:54 61.14567 46.80669 1813 ft 77 kts 326°
2026-05-06 14:54 61.15045 46.80187 1811 ft 75 kts 325°
2026-05-06 14:54 61.15508 46.79717 1808 ft 73 kts 326°
2026-05-06 14:54 61.15958 46.79260 1808 ft 72 kts 327°
2026-05-06 14:55 61.16425 46.78793 1740 ft 74 kts 329°
2026-05-06 14:55 61.16882 46.78341 1630 ft 72 kts 326°
2026-05-06 14:55 61.17311 46.77912 1538 ft 67 kts 325°
2026-05-06 14:55 61.17735 46.77475 1441 ft 70 kts 325°
2026-05-06 14:56 61.18191 46.77014 1347 ft 74 kts 326°
2026-05-06 14:56 61.18651 46.76550 1254 ft 75 kts 328°
2026-05-06 14:56 61.19134 46.76064 1151 ft 78 kts 328°
2026-05-06 14:56 61.19623 46.75571 1049 ft 78 kts 328°
2026-05-06 14:57 61.20103 46.75085 941 ft 76 kts 328°
2026-05-06 14:57 61.20574 46.74612 828 ft 74 kts 329°
2026-05-06 14:57 61.21031 46.74151 725 ft 74 kts 328°
2026-05-06 14:57 61.21492 46.73672 619 ft 73 kts 324°
2026-05-06 14:58 61.21871 46.72935 467 ft 77 kts 317°
2026-05-06 14:58 61.22257 46.72194 378 ft 74 kts 317°
2026-05-06 14:58 61.22659 46.71518 314 ft 75 kts 317°
2026-05-06 14:58 61.23069 46.70797 210 ft 76 kts 317°
2026-05-06 14:59 61.23411 46.70195 197 ft 53 kts 314°
2026-05-06 14:59 61.23690 46.69693 194 ft 67 kts 318°
2026-05-06 14:59 61.24090 46.68925 212 ft 90 kts 318°
2026-05-06 14:59 61.24590 46.68081 213 ft 95 kts 315°